[[{"header":{"parameterUnit":"m.s-1","parameterCategory":1,"la1":30.2991,"la2":30.254,"lo1":-89.0895,"lo2":-89.0444,"dy":0.0017,"dx":0.0017,"nx":28,"ny":28,"refTime":"2024-10-14T03:00:00:Z","depth":0,"parameterNumber":2,"parameterNumberName":"U-component_of_WINDS"},"data":[0,0,0,0,0,0,0,0,0,0,0,0,0,0,0,0,0,0,0,0,0,0,0,0,0,0,0,0,0,0,0,0,0,0,0,0,0,0,0,0,0,0,0,0,0,0,0,0,0,0,0,0,0,0,0,0,0,0,5.1172,5.1173,0,5.1336,5.1337,5.1339,5.1256,5.1252,5.1248,5.1244,5.1413,5.1422,5.143,0,0,0,0,0,0,0,0,0,0,0,0,0,5.0788,5.0795,5.1172,5.1174,5.1176,5.1335,5.1337,5.134,5.1257,5.1252,5.1247,5.1242,5.1411,5.1421,5.1431,0,0,0,0,0,0,0,0,0,0,0,0,0,5.0953,5.0798,5.1171,5.1154,5.1154,5.1335,5.1338,5.134,5.1258,5.1252,5.1245,5.1239,5.1407,5.142,5.1432,5.1641,0,0,5.1471,5.1477,0,0,0,0,0,0,0,0,5.0944,5.0967,5.1154,5.1155,5.1156,5.1269,5.1264,5.1441,5.126,5.1219,5.1244,5.1236,5.1371,5.1386,5.1431,5.1648,5.1656,5.1472,5.148,5.1486,5.1489,0,0,0,0,0,0,0,5.0933,5.096,5.1236,5.1157,5.1158,5.1138,5.1154,5.1297,5.1329,5.1222,5.1216,5.1237,5.137,5.1419,5.1434,5.1658,5.1472,5.1483,5.1491,5.1496,5.2053,5.2059,0,0,0,0,0,0,5.0922,5.0951,5.1231,5.1241,5.1032,5.115,5.1168,5.1239,5.1327,5.1334,5.1242,5.1232,5.14,5.1419,5.144,5.1688,5.1486,5.1498,5.1505,5.2046,5.2054,5.2062,0,0,0,0,0,0,5.0914,5.0948,5.1225,5.1095,5.1128,5.1163,5.1244,5.1246,5.1295,5.1342,5.1348,5.1286,5.1396,5.1422,5.1591,5.1692,5.1503,5.1515,5.2037,5.2048,5.2058,5.2186,0,0,0,0,0,0,5.0903,5.0945,5.1025,5.1097,5.1136,5.1373,5.125,5.1254,5.1317,5.1305,5.1385,5.1392,5.1393,5.1572,5.1603,5.1707,5.1525,5.2028,5.2042,5.2055,5.2173,5.22,5.2223,0,0,0,0,0,5.089,5.1055,5.1029,5.1063,5.1236,5.1379,5.1401,5.1397,5.1325,5.1405,5.1436,5.139,5.1677,5.159,5.1625,5.1733,5.2022,5.2038,5.2054,5.2162,5.2194,5.2222,0,0,0,0,0,0,5.0995,5.1064,5.1036,5.123,5.1299,5.1364,5.1465,5.1433,5.1524,5.151,5.1502,5.1521,5.1696,5.1732,5.1634,5.1938,5.1838,5.1862,5.1908,5.194,5.1964,5.1951,5.1536,0,0,0,0,0,5.104,5.1151,5.1206,5.1371,5.1407,5.1431,5.1493,5.1484,5.1555,5.1584,5.1627,5.1699,5.1804,5.1874,5.1975,5.2178,5.2193,5.227,5.2295,5.2315,5.2335,5.2443,5.2477,5.2114,5.2114,5.2114,0,0,5.1136,5.1188,5.1258,5.1393,5.1446,5.156,5.1456,5.1581,5.1665,5.1604,5.1764,5.1799,5.1878,5.2064,5.2148,5.2099,5.2439,5.2335,5.2351,5.236,5.2463,5.2497,5.2528,5.2125,5.2123,5.2121,0,0,5.1367,5.1419,5.1561,5.1615,5.1695,5.171,5.1744,5.1815,5.1834,5.1996,5.1951,5.2052,5.2235,5.2292,5.2346,5.2598,5.2558,5.2631,5.2761,5.2866,5.2895,5.292,5.3008,5.304,5.2651,5.2652,5.2652,0,5.1476,5.1645,5.1638,5.1767,5.1827,5.1776,5.1919,5.1973,5.2082,5.2125,5.2069,5.2296,5.2346,5.2544,5.2605,5.2651,5.2689,5.2621,5.2891,5.2917,5.294,5.3024,5.3057,5.266,5.2659,5.2658,5.2657,0,5.1774,5.1892,5.1998,5.2103,5.2176,5.2311,5.2324,5.2399,5.2384,5.2404,5.2568,5.2626,5.2736,5.2783,5.277,5.2979,5.2946,5.2891,5.279,5.2983,5.3061,5.3094,5.2671,5.2668,5.2666,5.2664,0,0,5.2076,5.2175,5.2213,5.226,5.2344,5.2435,5.2569,5.2675,5.2738,5.2816,5.2926,5.3082,5.303,5.3091,5.3084,5.3177,5.3371,5.3111,5.3112,5.3155,5.3602,5.3641,5.3679,5.3346,5.3352,5.3357,5.3595,0,5.2311,5.2543,5.254,5.2755,5.2863,5.2815,5.2931,5.2995,5.3018,5.3113,5.3137,5.3247,5.3173,5.3208,5.3298,5.3328,5.346,5.3311,5.3447,5.3452,5.3427,5.372,5.3762,5.3984,5.3625,5.3631,5.3635,0,5.2617,5.2703,5.2928,5.2995,5.304,5.3144,5.324,5.3332,5.3404,5.3414,5.3481,5.3459,5.3594,5.349,5.3674,5.3573,5.3628,5.3652,5.366,5.3671,5.3554,5.3737,5.4055,5.4087,5.3683,5.3679,5.3676,0,5.2812,5.2984,5.314,5.3182,5.3264,5.3338,5.3376,5.3441,5.3505,5.359,5.3631,5.3731,5.3785,5.3863,5.3869,5.3793,5.4054,5.3951,5.4065,5.4065,5.4121,5.4117,5.445,5.4161,5.416,5.4159,5.4159,0,5.3074,5.3213,5.3228,5.3324,5.3478,5.3474,5.3626,5.3658,5.3716,5.3816,5.3783,5.3878,5.3881,5.3978,5.3984,5.4135,5.416,5.4171,5.417,5.4173,5.4171,5.4208,5.4192,5.4168,5.4166,5.4165,5.4163,0,5.3317,5.3333,5.35,5.3564,5.3583,5.3694,5.3748,5.384,5.3858,5.3986,5.4016,5.4046,5.4159,5.4173,5.4305,5.4309,5.449,5.4474,5.4465,5.4462,5.4574,5.4563,5.4941,5.4989,5.467,5.4673,5.4676,0,5.3483,5.3588,5.3663,5.3728,5.3769,5.3874,5.3938,5.3938,5.4007,5.4095,5.4176,5.4285,5.4372,5.4555,5.4588,5.4689,5.4674,5.4799,5.4689,5.4687,5.4673,5.4666,5.4675,5.482,5.4824,5.4827,5.4829,0,5.3773,5.3776,5.387,5.3967,5.4044,5.4121,5.4192,5.4247,5.4256,5.4335,5.4449,5.4517,5.4651,5.4759,5.4858,5.4896,5.4864,5.4864,5.4895,5.4897,5.4887,5.4892,5.4521,5.4855,5.4852,5.485,5.4849,5.4848,5.3981,5.4072,5.4138,5.4243,5.4297,5.4365,5.4453,5.4482,5.4577,5.4685,5.468,5.4806,5.4873,5.5002,5.5048,5.5146,5.5105,5.5151,5.5162,5.5173,5.5183,5.4873,5.5165,5.5164,5.5163,5.5163,5.5162,0,5.4268,5.4308,5.4405,5.4506,5.4588,5.4551,5.4628,5.4699,5.481,5.4876,5.4962,5.5092,5.5197,5.5239,5.5341,5.5411,5.5399,5.5438,5.5432,5.5441,5.5215,5.5177,5.5446,5.5446,5.5446,5.5446,5.5446,5.5446,5.4427,5.4577,5.4588,5.4764,5.4803,5.4925,5.4972,5.5034,5.5086,5.5233,5.532,5.5346,5.5402,5.5507,5.5601,5.5611,5.5649,5.5694,5.5697,5.5486,5.5457,5.5429,5.5393,5.5703,5.5704,5.5914,5.5916,5.5918]},{"header":{"parameterUnit":"m.s-1","parameterCategory":1,"la1":30.2991,"la2":30.254,"lo1":-89.0895,"lo2":-89.0444,"dy":0.0017,"dx":0.0017,"nx":28,"ny":28,"refTime":"2024-10-14T03:00:00:Z","depth":0,"parameterNumber":3,"parameterNumberName":"V-component_of_WINDS"},"data":[0,0,0,0,0,0,0,0,0,0,0,0,0,0,0,0,0,0,0,0,0,0,0,0,0,0,0,0,0,0,0,0,0,0,0,0,0,0,0,0,0,0,0,0,0,0,0,0,0,0,0,0,0,0,0,0,0,0,1.8449,1.845,0,1.85,1.8501,1.8501,1.8483,1.8482,1.848,1.8479,1.853,1.8532,1.8535,0,0,0,0,0,0,0,0,0,0,0,0,0,1.8332,1.8335,1.8449,1.845,1.845,1.85,1.8501,1.8502,1.8483,1.8482,1.848,1.8479,1.8529,1.8532,1.8535,0,0,0,0,0,0,0,0,0,0,0,0,0,1.8383,1.8335,1.8449,1.8447,1.8447,1.85,1.8501,1.8502,1.8483,1.8482,1.848,1.8478,1.8528,1.8532,1.8535,1.8592,0,0,1.8547,1.8548,0,0,0,0,0,0,0,0,1.838,1.8388,1.8447,1.8447,1.8448,1.8483,1.8478,1.8532,1.8484,1.847,1.8479,1.8477,1.8516,1.852,1.8534,1.8595,1.8597,1.8547,1.8549,1.8551,1.8552,0,0,0,0,0,0,0,1.8377,1.8385,1.8469,1.8448,1.8448,1.8443,1.8448,1.8488,1.8502,1.8471,1.8469,1.8476,1.8516,1.853,1.8535,1.8598,1.8547,1.855,1.8552,1.8554,1.8706,1.8707,0,0,0,0,0,0,1.8373,1.8382,1.8468,1.8471,1.8409,1.8446,1.8452,1.8474,1.8501,1.8504,1.8477,1.8475,1.8525,1.8531,1.8536,1.8604,1.8551,1.8554,1.8556,1.8704,1.8706,1.8708,0,0,0,0,0,0,1.8371,1.8381,1.8466,1.8426,1.8437,1.845,1.8474,1.8476,1.849,1.8506,1.8508,1.849,1.8524,1.8531,1.8578,1.8605,1.8556,1.8559,1.8702,1.8704,1.8707,1.8739,0,0,0,0,0,0,1.8368,1.8381,1.8403,1.8427,1.8439,1.8508,1.8476,1.8478,1.8497,1.8494,1.8519,1.8521,1.8523,1.8573,1.8582,1.8609,1.8562,1.8699,1.8703,1.8706,1.8736,1.8743,1.8749,0,0,0,0,0,1.8364,1.841,1.8404,1.8415,1.8467,1.8509,1.8516,1.8518,1.8499,1.8521,1.8531,1.852,1.8601,1.8578,1.8588,1.8617,1.8697,1.8702,1.8706,1.8733,1.8741,1.8748,0,0,0,0,0,0,1.8389,1.8413,1.8407,1.8463,1.8484,1.8506,1.8534,1.8527,1.8553,1.855,1.855,1.8556,1.8604,1.8615,1.8589,1.8672,1.8646,1.8652,1.8663,1.8671,1.8678,1.8674,1.8565,0,0,0,0,0,1.8401,1.8434,1.8453,1.85,1.8511,1.8521,1.8539,1.8539,1.856,1.8569,1.8583,1.8603,1.8633,1.8653,1.8681,1.8737,1.8741,1.8762,1.8768,1.8773,1.8779,1.8807,1.8816,1.8722,1.8722,1.8722,0,0,1.8427,1.8444,1.8464,1.8506,1.8522,1.8555,1.8529,1.8565,1.8588,1.8574,1.8619,1.863,1.8653,1.8704,1.8727,1.8715,1.8805,1.8779,1.8783,1.8785,1.8812,1.8821,1.8829,1.8725,1.8724,1.8724,0,0,1.8489,1.8506,1.8547,1.8563,1.8588,1.8594,1.8604,1.8627,1.8633,1.8678,1.8668,1.8695,1.8747,1.8764,1.8779,1.8846,1.8836,1.8855,1.8889,1.8916,1.8924,1.893,1.8953,1.8961,1.886,1.886,1.886,0,1.8518,1.8567,1.8568,1.8605,1.8623,1.8611,1.8651,1.8667,1.87,1.8712,1.8698,1.8761,1.8776,1.883,1.8846,1.8859,1.8869,1.8852,1.8923,1.8929,1.8935,1.8957,1.8965,1.8862,1.8862,1.8862,1.8862,0,1.86,1.8634,1.8664,1.8696,1.8717,1.8755,1.8761,1.8782,1.8779,1.8786,1.8831,1.8848,1.8879,1.8892,1.889,1.8945,1.8936,1.8922,1.8896,1.8946,1.8966,1.8975,1.8865,1.8865,1.8864,1.8863,0,0,1.8681,1.8712,1.8723,1.8736,1.8762,1.8788,1.8825,1.8856,1.8873,1.8895,1.8925,1.8969,1.8955,1.8973,1.8972,1.8996,1.9046,1.8979,1.8979,1.899,1.9106,1.9116,1.9126,1.904,1.9042,1.9043,1.9104,0,1.8745,1.8811,1.8812,1.8871,1.8902,1.8891,1.8923,1.8941,1.8948,1.8974,1.8982,1.9012,1.8993,1.9003,1.9027,1.9035,1.907,1.9031,1.9067,1.9068,1.9061,1.9137,1.9148,1.9205,1.9112,1.9114,1.9115,0,1.8829,1.8854,1.8917,1.8936,1.8949,1.8978,1.9005,1.9031,1.9051,1.9054,1.9072,1.9067,1.9103,1.9076,1.9125,1.9099,1.9113,1.9119,1.9122,1.9125,1.9094,1.9141,1.9223,1.9231,1.9127,1.9126,1.9125,0,1.888,1.893,1.8973,1.8985,1.901,1.903,1.9041,1.9059,1.9077,1.91,1.9111,1.9138,1.9153,1.9174,1.9175,1.9156,1.9224,1.9197,1.9227,1.9227,1.9241,1.924,1.9326,1.9252,1.9252,1.9252,1.9252,0,1.8952,1.899,1.8996,1.9023,1.9065,1.9066,1.9107,1.9116,1.9132,1.9159,1.9151,1.9177,1.9178,1.9204,1.9205,1.9244,1.9251,1.9254,1.9254,1.9255,1.9254,1.9264,1.9259,1.9254,1.9253,1.9253,1.9253,0,1.9016,1.9022,1.9069,1.9088,1.9093,1.9123,1.9139,1.9164,1.9169,1.9204,1.9212,1.922,1.925,1.9254,1.9289,1.929,1.9336,1.9333,1.933,1.9329,1.9358,1.9354,1.9452,1.9464,1.9383,1.9384,1.9384,0,1.9061,1.909,1.9112,1.913,1.9142,1.9171,1.9189,1.9189,1.9208,1.9232,1.9253,1.9282,1.9305,1.9353,1.9362,1.9388,1.9384,1.9416,1.9388,1.9387,1.9383,1.9381,1.9383,1.9422,1.9423,1.9423,1.9424,0,1.9139,1.914,1.9167,1.9194,1.9215,1.9236,1.9256,1.9271,1.9274,1.9295,1.9325,1.9343,1.9378,1.9406,1.9431,1.9441,1.9433,1.9433,1.9441,1.9441,1.9438,1.9439,1.9344,1.9431,1.943,1.9429,1.9429,1.9429,1.9195,1.922,1.9238,1.9267,1.9282,1.93,1.9324,1.9332,1.9358,1.9387,1.9385,1.9418,1.9436,1.9469,1.9481,1.9505,1.9495,1.9506,1.9509,1.9512,1.9514,1.9435,1.951,1.951,1.951,1.951,1.951,0,1.9272,1.9283,1.9309,1.9337,1.9359,1.935,1.9371,1.939,1.9419,1.9436,1.9459,1.9493,1.9519,1.953,1.9556,1.9573,1.957,1.958,1.9578,1.9581,1.9523,1.9513,1.9582,1.9582,1.9582,1.9582,1.9582,1.9582,1.9314,1.9355,1.9358,1.9406,1.9416,1.9449,1.9461,1.9478,1.9491,1.9529,1.9552,1.9558,1.9572,1.9599,1.9623,1.9625,1.9634,1.9646,1.9646,1.9592,1.9585,1.9578,1.9568,1.9648,1.9648,1.9701,1.9702,1.9702]}]]